Вернуться в каталог

STARLINK-5527

АктивенСвязьVLEO
NORAD 56497·PAYLOAD·🇺🇸 United States

Запущен May 10, 2023 с Vandenberg Space Force Base

Loading…

Ближайшие Пролёты (ближайшие 24 часа)

TLE

СвежийSource: CelesTrak SupGP

Эпоха: Sep 14, 2026, 20:53 UTC

1 56497C 23064BB  26257.87062500 -.00052765  00000+0 -44221-2 0  2574
2 56497  70.0016 347.3405 0003563 272.4458  68.3398 14.98354308    15

Отслеживайте STARLINK-5527 в реальном времени с AllMySat

Download on the App Store